Flag Weather past 2 weeks in Siegburg, North Rhine-Westphalia, Germany

Now
43 °F

Overcast.


Feels Like: 41 °F
Forecast: 40 / 50 °F
Wind: 3 mph from East

Location: Bonn-Hangelar

Current Time: Nov 27, 2014 at 9:48:41 AM

Latest Report: Nov 27, 2014 at 9:00 AM


Visibility: 11 mi

Pressure: 29.78 "Hg

Humidity: 99%

Dew point: 43 °F

Location of SiegburgLocation

Historic Weather in Siegburg — Graph

°F

Siegburg temperature yesterday

Maximum temperature yesterday: 45 °F (at 11:00 PM)
Minimum temperature yesterday: 37 °F (at 12:00 AM)
Average temperature yesterday: 41 °F

Past Weeks' High & Low Weather Summary

 TemperatureHumidityPressure
High61 °F (Nov 22, 3:00 PM)100% (Nov 15, 4:00 AM)30.36 "Hg (Nov 15, 4:00 AM)
Low33 °F (Nov 25, 8:00 AM)58% (Nov 13, 3:00 PM)29.50 "Hg (Nov 16, 4:00 PM)
Average45 °F91%29.94 "Hg
* Reported Nov 12 9:00 AM — Nov 27 9:00 AM, Siegburg, Weather by CustomWeather, © 2014

Note: Actual official high and low records may vary slightly from our data, if they occured in-between our weather recording intervals... More about our weather records

Advertising

Siegburg weather history for previous 24 hours

 ConditionsComfort  
Time TempWeatherWind HumidityBarometerVisibility
9:00 AM
Nov 27
43 °FOvercast.3 mph99%29.78 "Hg11 mi
8:00 AM42 °FOvercast.2 mph100%29.78 "Hg7 mi
7:00 AM42 °FOvercast.2 mph99%29.80 "Hg7 mi
6:00 AM43 °FOvercast.1 mph99%29.80 "Hg9 mi
5:00 AM43 °FFog.2 mph99%29.80 "Hg2 mi
4:00 AM44 °FFog.2 mph99%29.81 "Hg2 mi
3:00 AM44 °FFog.2 mph99%29.83 "Hg2 mi
2:00 AM44 °FFog.3 mph99%29.84 "Hg2 mi
1:00 AM44 °FFog.2 mph99%29.85 "Hg3 mi
12:00 AM44 °FFog.2 mph98%29.87 "Hg2 mi
11:00 PM
Nov 26
45 °FFog.2 mph98%29.88 "Hg4 mi
10:00 PM43 °FFog.3 mph99%29.88 "Hg2 mi
9:00 PM43 °FOvercast.2 mph99%29.88 "Hg5 mi
8:00 PM42 °FOvercast.2 mph100%29.89 "Hg5 mi
7:00 PM42 °FOvercast.3 mph99%29.89 "Hg6 mi
6:00 PM42 °FFog.5 mph100%29.90 "Hg2 mi
5:00 PM42 °FPassing clouds.8 mph99%29.90 "Hg28 mi
4:00 PM42 °FFog.5 mph99%29.91 "Hg4 mi
3:00 PM42 °FPassing clouds.6 mph99%29.92 "Hg25 mi
2:00 PM43 °FRain. Low clouds.3 mph97%29.93 "Hg2 mi
1:00 PM43 °FLight rain. Overcast.3 mph95%29.94 "Hg4 mi
12:00 PM43 °FLight rain. Overcast.3 mph91%29.95 "Hg5 mi
11:00 AM42 °FOvercast.3 mph93%29.97 "Hg5 mi
10:00 AM41 °FOvercast.3 mph96%29.97 "Hg5 mi
9:00 AM40 °FFog.3 mph96%29.98 "Hg4 mi
Weather by CustomWeather, © 2014

See weather overviewHow to use our weather pages